www.pogodaiklimat.ru

Погода и климат >> Архив погоды >> Австралия >> Marree Aero


ПОГОДА в Marree Aero

  • Прогноз погоды в Marree Aero
  • Монитор погоды в Marree Aero
  • Климат города

АРХИВ ПОГОДЫ в Marree Aero

Время (UTC), дата Ветер
(напр.,м/с)
 
Видим.   Явления Облачность Т
(С)
Тd
(С)
f
(%)
Тe
(С)
Тes
(С)
Комфортность P
(гПа)
Po
(гПа)
Тmin
(С)
Tmax
(С)
R
(мм)
S
(см)
13 14.02 В 4 н/о н/о +26.5 +5.5 26 +26 +26 жарко 1013.5 1007.8
14 14.02 З 2 н/о н/о +23.4 +4.9 30 +23 +23 комфорт 1013.5 1007.8
15 14.02 штиль 0 н/о н/о +23.1 +4.6 30 +23 +23 комфорт 1013.1 1007.4
16 14.02 Ю 3 н/о н/о +21.8 +5.3 34 +22 +22 комфорт 1012.4 1006.7
17 14.02 Ю 2 н/о н/о +20.2 +4.7 36 +21 +21 комфорт 1012.1 1006.4
18 14.02 Ю 4 н/о н/о +20.2 +5.4 38 +21 +21 комфорт 1012.0 1006.3
19 14.02 ЮВ 2 н/о н/о +19.2 +4.9 39 +20 +20 1012.0 1006.3
20 14.02 ЮВ 3 н/о н/о +17.8 +4.7 42 +18 +18 1012.5 1006.8
21 14.02 ЮВ 3 н/о н/о +18.2 +5.4 43 +18 +18 1012.9 1007.2
22 14.02 ЮВ 3 н/о н/о +23.8 +7.4 35 +24 +24 комфорт 1013.3 1007.6
23 14.02 В 5 н/о н/о +28.5 +4.7 22 +27 +27 жарко 1013.1 1007.4
00 15.02 СВ 4 н/о н/о +31.1 +4.0 18 +29 +29 жарко 1013.3 1007.6
01 15.02 СВ 3 н/о н/о +32.6 +3.5 16 +30 +30 жарко 1012.8 1007.1
02 15.02 З 3 н/о н/о +33.5 +3.3 15 +31 +31 жарко 1012.4 1006.7
03 15.02 Ю 5 н/о н/о +34.3 +2.0 13 +31 +31 жарко 1011.6 1005.9
04 15.02 ЮЗ 4 н/о н/о +35.6 +1.8 12 +32 +32 жарко 1010.8 1005.1
05 15.02 С 3 н/о н/о +36.4 -0.1 10 +33 +33 жарко 1009.8 1004.1
06 15.02 В 3 н/о н/о +37.1 +0.4 10 +33 +33 жарко 1008.9 1003.2
07 15.02 ЮВ 4 н/о н/о +37.1 -1.0 9 +33 +33 жарко 1008.4 1002.7
08 15.02 В 4 н/о н/о +36.5 0.0 10 +33 +33 жарко 1008.3 1002.6
09 15.02 ЮВ 4 н/о н/о +36.0 -0.4 10 +32 +32 жарко 1008.2 1002.5
10 15.02 ЮВ 4 н/о н/о +33.2 +1.1 13 +30 +30 жарко 1008.7 1003.0
11 15.02 ЮВ 3 н/о н/о +30.4 +0.9 15 +28 +28 жарко 1009.2 1003.5
12 15.02 ЮЗ 2 н/о н/о +29.3 -0.9 14 +26 +26 жарко 1009.4 1003.7
13 15.02 штиль 0 н/о н/о +27.8 -0.3 16 +25 +25 комфорт 1009.4 1003.7
14 15.02 В 3 н/о н/о +25.3 +0.8 20 +24 +24 комфорт 1009.5 1003.8
15 15.02 В 2 н/о н/о +24.6 +1.5 22 +23 +23 комфорт 1009.4 1003.7
16 15.02 СВ 1 н/о н/о +23.0 +1.4 24 +22 +22 комфорт 1009.1 1003.4
17 15.02 штиль 0 н/о н/о +22.0 +1.6 26 +22 +22 комфорт 1008.8 1003.1
18 15.02 штиль 0 н/о н/о +20.9 +1.2 27 +21 +21 комфорт 1008.7 1003.0
19 15.02 ЮВ 4 н/о н/о +20.2 +1.1 28 +20 +20 1009.0 1003.3
20 15.02 Ю 5 н/о н/о +20.8 +1.6 28 +21 +21 комфорт 1009.5 1003.8
21 15.02 ЮВ 3 н/о н/о +19.7 +1.7 30 +20 +20 1010.1 1004.4
22 15.02 ЮВ 3 н/о н/о +24.4 +2.5 24 +24 +24 комфорт 1010.6 1004.9
23 15.02 ЮВ 3 н/о н/о +29.7 +2.9 18 +28 +28 жарко 1010.8 1005.1
00 16.02 ЮЗ 1 н/о н/о +32.9 +0.9 13 +30 +30 жарко 1010.7 1005.0
01 16.02 С 1 н/о н/о +36.3 -0.2 10 +33 +33 жарко 1010.4 1004.7
02 16.02 СЗ 3 н/о н/о +36.9 +0.3 10 +33 +33 жарко 1009.9 1004.2
03 16.02 СЗ 3 н/о н/о +38.1 +1.2 10 +35 +35 очень
жарко
1009.2 1003.5
04 16.02 ЮЗ 3 н/о н/о +39.1 +0.5 9 +35 +35 очень
жарко
1008.4 1002.7
05 16.02 З 2 н/о н/о +39.4 -0.9 8 +36 +36 очень
жарко
1007.5 1001.8
06 16.02 В 4 н/о н/о +39.4 -0.9 8 +36 +36 очень
жарко
1006.8 1001.1
07 16.02 З 5 н/о н/о +40.3 -0.3 8 +36 +36 очень
жарко
1006.3 1000.6
08 16.02 ЮЗ 4 н/о н/о +40.0 +1.1 9 +36 +36 очень
жарко
1006.2 1000.5
09 16.02 Ю 6 н/о н/о +38.4 +1.4 10 +35 +35 очень
жарко
1006.9 1001.2
10 16.02 Ю 5 н/о н/о +35.9 +0.9 11 +32 +32 жарко 1007.7 1002.0
11 16.02 Ю 5 н/о н/о +33.0 +2.0 14 +30 +30 жарко 1008.3 1002.6
12 16.02 Ю 4 н/о н/о +29.9 +3.0 18 +28 +28 жарко 1008.6 1002.9
13 16.02 Ю 4 н/о н/о +30.0 +4.6 20 +28 +28 жарко 1008.6 1002.9
14 16.02 ЮВ 4 н/о н/о +27.2 +4.9 24 +26 +26 жарко 1008.5 1002.8
15 16.02 Ю 4 н/о н/о +26.7 +5.6 26 +26 +26 жарко 1008.3 1002.6
16 16.02 Ю 3 н/о н/о +25.8 +5.4 27 +25 +25 комфорт 1007.8 1002.1
17 16.02 Ю 3 н/о н/о +25.2 +6.4 30 +25 +25 комфорт 1007.9 1002.2
18 16.02 ЮЗ 1 н/о н/о +24.4 +6.2 31 +24 +24 комфорт 1007.7 1002.0
19 16.02 В 2 н/о н/о +22.9 +5.8 33 +23 +23 комфорт 1007.9 1002.2
20 16.02 ЮЗ 5 н/о н/о +23.8 +12.1 48 +26 +26 жарко 1008.4 1002.7
21 16.02 Ю 6 н/о н/о +24.4 +15.1 56 +27 +27 жарко 1009.2 1003.5
22 16.02 Ю 8 н/о н/о +24.3 +15.0 56 +27 +27 жарко 1010.1 1004.4
23 16.02 Ю 9 н/о н/о +27.7 +14.7 45 +30 +30 жарко 1010.5 1004.8
00 17.02 Ю 8 н/о н/о +30.4 +14.1 37 +32 +32 жарко 1010.9 1005.2
01 17.02 Ю 9 н/о н/о +32.9 +12.0 28 +33 +33 жарко 1010.9 1005.2
02 17.02 Ю 7 н/о н/о +33.7 +11.5 26 +34 +34 очень
жарко
1010.7 1005.0
03 17.02 ЮЗ 7 н/о н/о +35.0 +10.8 23 +34 +34 очень
жарко
1010.3 1004.6
04 17.02 Ю 7 н/о н/о +35.0 +10.8 23 +34 +34 очень
жарко
1009.9 1004.2
05 17.02 ЮЗ 7 н/о н/о +35.1 +10.2 22 +34 +34 очень
жарко
1009.2 1003.5
06 17.02 ЮЗ 7 н/о н/о +34.5 +10.4 23 +34 +34 очень
жарко
1008.8 1003.1
07 17.02 ЮЗ 8 н/о н/о +34.8 +9.9 22 +34 +34 очень
жарко
1008.7 1003.0
08 17.02 Ю 9 н/о н/о +34.2 +9.4 22 +33 +33 жарко 1008.9 1003.2
09 17.02 Ю 8 н/о н/о +32.0 +8.9 24 +31 +31 жарко 1009.6 1003.9
10 17.02 Ю 7 н/о н/о +30.3 +7.5 24 +29 +29 жарко 1010.4 1004.7
11 17.02 ЮЗ 7 н/о н/о +28.9 +5.1 22 +27 +27 жарко 1011.2 1005.5
12 17.02 Ю 8 н/о н/о +27.2 +8.6 31 +27 +27 жарко 1011.9 1006.2
13 17.02 Ю 7 н/о н/о +25.7 +9.1 35 +26 +26 жарко 1012.0 1006.3
14 17.02 Ю 8 н/о н/о +24.5 +9.6 39 +25 +25 комфорт 1012.3 1006.6
15 17.02 Ю 8 н/о н/о +23.5 +10.2 43 +25 +25 комфорт 1012.4 1006.7
16 17.02 Ю 9 н/о н/о +22.3 +10.5 47 +24 +24 комфорт 1012.1 1006.4
17 17.02 Ю 8 н/о н/о +21.6 +10.7 50 +23 +23 комфорт 1012.3 1006.6
18 17.02 Ю 10 н/о н/о +20.7 +12.1 58 +22 +22 комфорт 1012.3 1006.6
19 17.02 Ю 10 н/о н/о +20.0 +12.7 63 +21 +21 комфорт 1012.7 1007.0
20 17.02 Ю 11 н/о н/о +19.4 +12.2 63 +20 +20 1013.1 1007.4
21 17.02 Ю 10 н/о н/о +19.3 +10.8 58 +19 +19 1014.2 1008.5
22 17.02 Ю 11 н/о н/о +20.2 +11.7 58 +21 +21 комфорт 1015.2 1009.5
23 17.02 Ю 11 н/о н/о +21.2 +11.0 52 +23 +23 комфорт 1015.7 1009.9
00 18.02 Ю 10 н/о н/о +22.7 +10.2 45 +25 +25 комфорт 1015.7 1009.9
01 18.02 Ю 10 н/о н/о +24.3 +8.3 36 +25 +25 комфорт 1015.7 1009.9
02 18.02 Ю 10 н/о н/о +25.0 +6.7 31 +25 +25 комфорт 1015.2 1009.5
03 18.02 ЮЗ 9 н/о н/о +26.3 +5.3 26 +26 +26 жарко 1015.0 1009.3
04 18.02 Ю 9 н/о н/о +27.2 +4.3 23 +26 +26 жарко 1014.4 1008.7
05 18.02 Ю 9 н/о н/о +27.9 +3.6 21 +26 +26 жарко 1013.3 1007.6
06 18.02 Ю 10 н/о н/о +28.4 +1.8 18 +26 +26 жарко 1012.8 1007.1
07 18.02 Ю 10 н/о н/о +27.7 +1.2 18 +26 +26 жарко 1012.5 1006.8
08 18.02 Ю 9 н/о н/о +27.2 +1.6 19 +25 +25 комфорт 1012.6 1006.9
09 18.02 ЮЗ 10 н/о н/о +26.0 +2.7 22 +25 +25 комфорт 1012.9 1007.2
10 18.02 Ю 9 н/о н/о +24.8 +3.5 25 +24 +24 комфорт 1013.5 1007.8
11 18.02 Ю 6 н/о н/о +23.4 +3.4 27 +23 +23 комфорт 1014.5 1008.8
12 18.02 Ю 7 н/о н/о +22.9 +3.9 29 +23 +23 комфорт 1014.7 1009.0
13 18.02 Ю 6 н/о н/о +21.7 +5.2 34 +22 +22 комфорт 1015.2 1009.5
14 18.02 Ю 8 н/о н/о +21.1 +7.0 40 +22 +22 комфорт 1015.6 1009.8
15 18.02 Ю 10 н/о н/о +19.8 +7.9 46 +20 +20 1016.0 1010.2
16 18.02 Ю 11 н/о н/о +18.6 +6.4 45 +18 +18 1015.8 1010.0
17 18.02 Ю 10 н/о н/о +18.0 +6.2 46 +17 +17 1015.5 1009.7
18 18.02 Ю 8 н/о н/о +17.4 +6.0 47 +16 +16 1015.7 1009.9
19 18.02 Ю 8 н/о н/о +16.9 +6.1 49 +16 +16 1016.1 1010.3
20 18.02 Ю 7 н/о н/о +15.9 +6.9 55 +15 +15 1017.1 1011.3
21 18.02 Ю 6 н/о н/о +15.8 +6.8 55 +15 +15 1017.1 1011.3
22 18.02 Ю 8 н/о н/о +17.8 +6.3 47 +17 +17 1017.9 1012.1
23 18.02 Ю 8 н/о н/о +19.9 +6.3 41 +20 +20 1018.0 1012.2
00 19.02 Ю 7 н/о н/о +20.8 +4.8 35 +21 +21 комфорт 1018.1 1012.3
01 19.02 Ю 6 н/о н/о +22.7 +4.7 31 +23 +23 комфорт 1017.6 1011.8
02 19.02 Ю 5 н/о н/о +23.3 +4.3 29 +23 +23 комфорт 1016.8 1011.0
03 19.02 Ю 6 н/о н/о +23.9 +3.8 27 +23 +23 комфорт 1016.3 1010.5
04 19.02 Ю 7 н/о н/о +26.1 +3.4 23 +25 +25 комфорт 1015.6 1009.8
05 19.02 Ю 9 н/о н/о +25.7 +3.6 24 +25 +25 комфорт 1014.7 1009.0
06 19.02 ЮЗ 9 н/о н/о +25.9 +3.8 24 +25 +25 комфорт 1014.5 1008.8
07 19.02 Ю 7 н/о н/о +26.1 +5.1 26 +25 +25 комфорт 1014.2 1008.5
08 19.02 Ю 9 н/о н/о +25.0 +5.2 28 +25 +25 комфорт 1014.3 1008.6
09 19.02 Ю 8 н/о н/о +23.9 +5.3 30 +24 +24 комфорт 1014.7 1009.0
10 19.02 Ю 7 н/о н/о +22.7 +5.2 32 +23 +23 комфорт 1015.1 1009.4
11 19.02 Ю 6 н/о н/о +21.7 +5.6 35 +22 +22 комфорт 1015.7 1009.9
12 19.02 Ю 4 н/о н/о +20.5 +5.3 37 +21 +21 комфорт 1016.0 1010.2
13 19.02 Ю 4 н/о н/о +19.0 +5.5 41 +19 +19 1015.9 1010.1
14 19.02 Ю 2 н/о н/о +17.8 +5.4 44 +19 +19 1015.9 1010.1
15 19.02 Ю 4 н/о н/о +16.8 +5.4 47 +16 +16 1015.5 1009.7
16 19.02 Ю 4 н/о н/о +16.5 +5.8 49 +16 +16 1015.4 1009.6
17 19.02 ЮВ 3 н/о н/о +15.3 +5.5 52 +15 +15 1015.5 1009.7
18 19.02 Ю 4 н/о н/о +15.1 +5.9 54 +14 +14 1015.6 1009.8
19 19.02 Ю 5 н/о н/о +15.6 +6.6 55 +15 +15 1015.8 1010.0
20 19.02 Ю 6 н/о н/о +16.3 +7.0 54 +15 +15 1016.1 1010.3
21 19.02 Ю 5 н/о н/о +16.4 +7.1 54 +16 +16 1016.4 1010.6
22 19.02 ЮВ 6 н/о н/о +18.8 +7.3 47 +19 +19 1017.2 1011.4
23 19.02 ЮВ 6 н/о н/о +20.9 +6.8 40 +22 +22 комфорт 1017.5 1011.7
00 20.02 ЮВ 5 н/о н/о +23.5 +6.7 34 +24 +24 комфорт 1017.6 1011.8
01 20.02 ЮВ 4 н/о н/о +24.5 +6.7 32 +25 +25 комфорт 1017.5 1011.7
02 20.02 ЮВ 3 н/о н/о +25.3 +5.5 28 +25 +25 комфорт 1016.8 1011.0
03 20.02 СЗ 2 н/о н/о +26.5 +5.5 26 +26 +26 жарко 1015.8 1010.0
04 20.02 В 3 н/о н/о +28.6 +5.5 23 +27 +27 жарко 1014.9 1009.2
05 20.02 Ю 4 н/о н/о +29.5 +4.2 20 +28 +28 жарко 1013.9 1008.2
06 20.02 З 3 н/о н/о +29.6 +3.6 19 +28 +28 жарко 1013.4 1007.7
07 20.02 ЮЗ 4 н/о н/о +29.6 +2.8 18 +27 +27 жарко 1013.2 1007.5
08 20.02 Ю 4 н/о н/о +30.0 +3.1 18 +28 +28 жарко 1013.3 1007.6
09 20.02 Ю 7 н/о н/о +28.2 +3.8 21 +27 +27 жарко 1014.0 1008.3
10 20.02 Ю 6 н/о н/о +26.4 +2.3 21 +25 +25 комфорт 1015.0 1009.3
11 20.02 Ю 5 н/о н/о +24.9 +3.0 24 +24 +24 комфорт 1015.7 1009.9
12 20.02 Ю 3 н/о н/о +22.7 +2.8 27 +22 +22 комфорт 1016.1 1010.3
13 20.02 ЮВ 3 н/о н/о +20.3 +1.7 29 +21 +21 комфорт 1016.3 1010.5
14 20.02 В 3 н/о н/о +20.5 +1.9 29 +21 +21 комфорт 1016.3 1010.5
15 20.02 ЮВ 2 н/о н/о +18.9 +1.9 32 +20 +20 1015.9 1010.1
16 20.02 ЮВ 3 н/о н/о +18.1 +2.0 34 +18 +18 1015.6 1009.8
17 20.02 ЮВ 3 н/о н/о +17.4 +2.6 37 +17 +17 1015.4 1009.6
18 20.02 ЮВ 4 н/о н/о +16.4 +1.7 37 +16 +16 1015.4 1009.6
19 20.02 ЮВ 4 н/о н/о +15.4 +1.5 39 +15 +15 1015.7 1009.9
20 20.02 ЮВ 4 н/о н/о +15.3 +2.8 43 +15 +15 1016.3 1010.5
21 20.02 ЮВ 4 н/о н/о +16.4 +3.8 43 +16 +16 1017.1 1011.3
22 20.02 В 9 н/о н/о +22.7 +3.3 28 +23 +23 комфорт 1017.6 1011.8
23 20.02 В 8 н/о н/о +25.2 +3.2 24 +24 +24 комфорт 1018.0 1012.2
00 21.02 СВ 9 н/о н/о +27.4 +3.2 21 +26 +26 жарко 1018.0 1012.2
01 21.02 СВ 7 н/о н/о +29.3 +3.3 19 +27 +27 жарко 1017.6 1011.8
02 21.02 СВ 6 н/о н/о +30.8 +3.8 18 +29 +29 жарко 1016.7 1010.9
03 21.02 СВ 5 н/о н/о +31.3 +3.4 17 +29 +29 жарко 1015.7 1009.9
06 21.02 С 3 н/о н/о +32.8 +0.8 13 +30 +30 жарко 1012.5 1006.8
07 21.02 С 3 н/о н/о +33.3 +1.2 13 +30 +30 жарко 1012.1 1006.4
08 21.02 СВ 5 н/о н/о +33.0 +2.0 14 +30 +30 жарко 1011.8 1006.1
09 21.02 СВ 4 н/о н/о +32.5 +1.6 14 +29 +29 жарко 1012.1 1006.4
10 21.02 СВ 4 н/о н/о +30.3 +1.7 16 +28 +28 жарко 1012.6 1006.9
11 21.02 СВ 4 н/о н/о +28.1 +2.3 19 +26 +26 жарко 1013.0 1007.3

 

Местоположение метеостанции Marree Aero (Южная Австралия, Австралия): широта -29.66 долгота 138.06 высота над уровнем моря 51 м.

В архиве по умолчанию представлена погода в Marree Aero за последнюю неделю. Архивные данные за месяц целиком и за предыдущие месяцы, начиная с января 2011 года, Вы можете получить, выбрав интересующий диапазон дат из раскрывающегося списка и нажав кнопку "Ввод!".

Внимание! Время в таблицах - всемирное. Для получения местного времени необходимо прибавить поправку, которая в Marree Aero равна 9.5 ч.

Смотрите также архив погоды в соседних городах и на ближайших метеорологических станциях:

Погода в Leigh Creek Airport (Южная Австралия, Австралия) (110 км)
Погода в Olympic Dam Aerodrome (Южная Австралия, Австралия) (146 км)
Погода в Woomera Aerodrome (Южная Австралия, Австралия) (205 км)
Погода в Moomba Airport (Южная Австралия, Австралия) (271 км)
Погода в Port Augusta Arid Lands (Южная Австралия, Австралия) (320 км)
Погода в Coober Pedy Airport (Южная Австралия, Австралия) (332 км)
Погода в Oodnadatta Airport (Южная Австралия, Австралия) (346 км)
Погода в Yunta Airstrip (Южная Австралия, Австралия) (354 км)
Погода в Tarcoola Aero (Южная Австралия, Австралия) (355 км)
Погода в Whyalla Airport (Южная Австралия, Австралия) (383 км)

Пояснения к столбцам:

Ветер - указаны скорость ветра в м/с - средняя за 10 мин, порывы в срок и между сроками (в фигурных скобках) и направление, откуда дует ветер: С - северный, СВ - северо-восточный, В - восточный, ЮВ - юго-восточный, Ю - южный, ЮЗ - юго-западный, З - западный, СЗ - северо-западный.
Видимость - горизонтальная дальность видимости в метрах или километрах. При видимости от 1 до 10 км при отсутствии осадков обычно наблюдается дымка, при ухудшении видимости до 1 км и менее - туман. В сухую погоду видимость может ухудшаться дымом, пылью или мглою.
Явления - указаны атмосферные явления, наблюдавшиеся в срок или в последний час перед сроком; фигурными скобками обозначены явления, наблюдавшиеся между сроками (за 1-3 часа до срока); квадратными скобками обозначены град или гололедные отложения с указанием их диаметра в мм.
Облачность - указаны через наклонную черту общая и нижняя облачность в баллах и высота нижней границы облаков в метрах; квадратными скобками обозначены формы облаков: Ci - перистые, Cs - перисто-слоистые, Cc - перисто-кучевые, Ac - высококучевые, As - высокослоистые, Sc - слоисто-кучевые, Ns - слоисто-дождевые, Cu - кучевые, Cb - кучево-дождевые. Подробнее классификацию облаков см. в Атласе облаков (PDF).
T - Температура воздуха - температура, измеренная на высоте 2 м над землей.
Td - Температура точки росы - температура, при понижении до которой содержащийся в воздухе водяной пар достигнет насыщения.
f - Относительная влажность воздуха - влажноcть воздуха, измеренная на высоте 2 м над землей.
Te - Эффективная температура - температура, которую ощущает одетый по сезону человек в тени. Характеристика душности погоды. При расчете учитывается влияние влажности воздуха и скорости ветра на теплоощущения человека.
Tes - Эффективная температура на солнце - температура, которую ощущает человек, с поправкой на солнечный нагрев. Характеристика знойности погоды. Зависит от высоты солнца над горизонтом, облачности и скорости ветра. Ночью, в пасмурную погоду, а также при ветре 12 м/с и более поправка равна нулю.
P - Атмосферное давление - приведенное к уровню моря атмосферное давление.
Po - Атмосферное давление - измеренное на уровне метеостанции атмосферное давление.
Tmin - Минимальная температура - минимум температуры воздуха на высоте 2 м над землей.
Tmax - Максимальная температура - максимум температуры воздуха на высоте 2 м над землей.
R - Количество осадков - Количество выпавших осадков, мм. При наведении курсора мыши на число - период времени, за который выпало указанное количество осадков.
S - Снежный покров - Высота снежного покрова, см. При наведении курсора мыши на число - состояние снежного покрова и степень покрытия местности в баллах.